Location: Baia Mare
(47.6567°N, 23.5850°E)
Time: 07:49:23
(UTC+03:00)

ISS - Pass Details

Date: 21 May 2018
Orbit: 402 x 407 km, 51.6° (Epoch: 21 May)

Event Time Altitude Azimuth Distance (km) Brightness Sun altitude
Rises 03:22:18 0° 293° (WNW) 2,320 0.0 -17.0°
Reaches altitude 10° 03:24:24 10° 296° (WNW) 1,459 -1.1 -16.9°
Maximum altitude 03:27:39 69° 20° (NNE) 434 -3.6 -16.6°
Drops below altitude 10° 03:30:54 10° 105° (ESE) 1,454 -0.8 -16.3°
Sets 03:32:59 0° 108° (ESE) 2,311 0.2 -16.1°
